Mobile, AL

1:40 PM CDT on August 23, 2017 (GMT -0500)
Mobile Regional

Weather History for KMOB - October, 2010

Change the Weather History Date:

Wednesday, October 13, 2010

  Actual Average Record
Temperature  
Mean Temperature 71 °F 69 °F  
Max Temperature 84 °F 80 °F 92 °F (1963)
Min Temperature 58 °F 59 °F 41 °F (1977)
Degree Days  
Heating Degree Days 0 1  
Month to date heating degree days 13 9  
Since 1 July heating degree days 13 11  
Cooling Degree Days 6 5  
Month to date cooling degree days 51 89  
Year to date cooling degree days 2670 2393  
Growing Degree Days 20 (Base 50)    
Moisture  
Dew Point 58 °F    
Average Humidity 67    
Maximum Humidity 100    
Minimum Humidity 34    
Precipitation  
Precipitation 0.00 in 0.11 in 2.98 in (1912)
Month to date precipitation 0.00 1.57  
Year to date precipitation 48.48 53.84  
Sea Level Pressure  
Sea Level Pressure 30.01 in    
Wind  
Wind Speed 3 mph (NW)    
Max Wind Speed 12 mph    
Max Gust Speed 17 mph    
Visibility 7 miles    
Events Fog    
T = Trace of Precipitation, MM = Missing Value Source: NWS Daily Summary

Daily Weather History Graph

Daily Weather History Graph

Search for Another Location

Airport or City:

Trip Planner

Search our weather history database for the weather conditions in past years. The results will help you decide how hot, cold, wet, or windy it might be!

Date:

Astronomy

Oct. 13, 2010 Rise Set
Actual Time 6:54 AM CDT 6:23 PM CDT
Civil Twilight 6:29 AM CDT 6:48 PM CDT
Nautical Twilight 6:01 AM CDT 7:16 PM CDT
Astronomical Twilight 5:33 AM CDT 7:43 PM CDT
Moon 12:55 PM CDT (10/13) 11:20 PM CDT (10/13)
Length of Visible Light 12h 18m
Length of Day
11h 29m
Waxing Crescent, 38% of the Moon is Illuminated
Oct 13
Waxing Crescent
Oct 14
First Quarter
Oct 22
Full
Oct 30
Last Quarter
Nov 5
New

Hourly Weather History & Observations

Time (CDT) Temp. Heat Index Dew Point Humidity Pressure Visibility Wind Dir Wind Speed Gust Speed Precip Events Conditions
12:56 AM 64.9 °F - 63.0 °F 93% 29.97 in 9.0 mi WNW 3.5 mph - N/A   Clear
1:56 AM 66.0 °F - 63.0 °F 90% 29.97 in 10.0 mi West 4.6 mph - N/A   Partly Cloudy
2:56 AM 64.0 °F - 62.1 °F 93% 29.97 in 10.0 mi WNW 3.5 mph - N/A   Partly Cloudy
3:56 AM 63.0 °F - 61.0 °F 93% 29.96 in 10.0 mi Calm Calm - N/A   Clear
4:56 AM 60.1 °F - 57.9 °F 93% 29.98 in 6.0 mi West 3.5 mph - N/A   Partly Cloudy
5:50 AM 59.0 °F - 57.2 °F 94% 30.00 in 3.0 mi NW 3.5 mph - N/A Fog Mostly Cloudy
5:56 AM 59.0 °F - 57.9 °F 96% 29.99 in 0.8 mi WNW 3.5 mph - N/A   Mostly Cloudy
6:06 AM 59.0 °F - 57.2 °F 94% 30.00 in 0.5 mi NW 3.5 mph - N/A Fog Fog
6:20 AM 60.8 °F - 59.0 °F 94% 30.01 in 0.2 mi NNW 3.5 mph - N/A Fog Fog
6:30 AM 60.8 °F - 60.8 °F 100% 30.01 in 0.2 mi NNW 4.6 mph - N/A Fog Fog
6:56 AM 61.0 °F - 60.1 °F 97% 30.01 in 0.2 mi Calm Calm - N/A Fog Fog
7:56 AM 62.6 °F - 60.8 °F 94% 30.03 in 0.2 mi NW 3.5 mph - N/A Fog Fog
8:48 AM 62.6 °F - 62.6 °F 100% 30.04 in 0.5 mi NW 3.5 mph - N/A Fog Fog
8:56 AM 63.0 °F - 62.1 °F 97% 30.04 in 0.8 mi NW 4.6 mph - N/A   Mostly Cloudy
9:04 AM 62.6 °F - 62.6 °F 100% 30.04 in 2.5 mi NW 4.6 mph - N/A   Mostly Cloudy
9:13 AM 64.4 °F - 62.6 °F 94% 30.05 in 4.0 mi NNW 4.6 mph - N/A   Mostly Cloudy
9:19 AM 64.4 °F - 62.6 °F 94% 30.05 in 8.0 mi NW 3.5 mph - N/A   Scattered Clouds
9:56 AM 71.1 °F - 62.1 °F 73% 30.04 in 10.0 mi Variable 3.5 mph - N/A   Partly Cloudy
10:56 AM 75.9 °F - 57.9 °F 54% 30.04 in 10.0 mi NNE 8.1 mph - N/A   Clear
11:56 AM 80.1 °F 80.2 °F 55.9 °F 43% 30.03 in 10.0 mi NNW 9.2 mph - N/A   Partly Cloudy
12:56 PM 81.0 °F 80.7 °F 55.0 °F 41% 30.01 in 10.0 mi Variable 6.9 mph - N/A   Scattered Clouds
1:56 PM 82.0 °F 81.2 °F 53.1 °F 37% 29.99 in 10.0 mi West 9.2 mph 17.3 mph N/A   Scattered Clouds
2:56 PM 82.9 °F 81.8 °F 53.1 °F 36% 29.97 in 10.0 mi WSW 6.9 mph - N/A   Scattered Clouds
3:56 PM 82.0 °F - 51.1 °F 34% 29.97 in 10.0 mi WNW 4.6 mph - N/A   Scattered Clouds
4:56 PM 81.0 °F - 52.0 °F 36% 29.97 in 10.0 mi NW 5.8 mph - N/A   Scattered Clouds
5:56 PM 75.9 °F - 52.0 °F 43% 29.98 in 10.0 mi Calm Calm - N/A   Partly Cloudy
6:56 PM 71.1 °F - 54.0 °F 55% 30.00 in 10.0 mi Calm Calm - N/A   Partly Cloudy
7:56 PM 64.9 °F - 54.0 °F 68% 30.02 in 10.0 mi Calm Calm - N/A   Clear
8:56 PM 64.9 °F - 55.0 °F 70% 30.03 in 10.0 mi Calm Calm - N/A   Clear
9:56 PM 60.1 °F - 55.0 °F 83% 30.04 in 10.0 mi NW 3.5 mph - N/A   Clear
10:56 PM 62.1 °F - 55.9 °F 80% 30.05 in 10.0 mi Calm Calm - N/A   Clear
11:56 PM 60.1 °F - 55.9 °F 86% 30.04 in 10.0 mi Calm Calm - N/A   Clear